Back to catalog

HULIANWANG DIGUI-51

AliveCommunicationsLEO
NORAD 65108·PAYLOAD·🇨🇳 China

Launched Aug 4, 2025 from Wenchang Space Launch Site

Loading…

Next Passes (next 24 hours)

TLE

FreshSource: Space-Track

Epoch: Sep 14, 2026, 14:35 UTC

1 65108U 25168C   26257.60790315 -.00000082  00000-0  91328-4 0  9993
2 65108  50.0059   5.1201 0009512 355.2368   4.8412 13.29329096 54584

Track HULIANWANG DIGUI-51 in real time with AllMySat

Download on the App Store